Time,TemperatureF,DewpointF,PressureIn,WindDirection,WindDirectionDegrees,WindSpeedMPH,WindSpeedGustMPH,Humidity,HourlyPrecipIn,Conditions,Clouds,dailyrainin,SoftwareType,DateUTC
2013-01-28 00:01:00,59.0,55.0,-100.00,NE,36,4.0,6.0,86,0.00,,,1.79,,2013-01-28 10:01:00,
2013-01-28 00:11:00,61.0,53.0,-100.00,North,5,0.0,6.0,75,0.00,,,1.79,,2013-01-28 10:11:00,
2013-01-28 00:32:00,61.0,53.0,-100.00,North,5,0.0,6.0,75,0.00,,,1.79,,2013-01-28 10:32:00,
2013-01-28 00:42:00,61.0,53.0,-100.00,North,5,0.0,6.0,75,0.00,,,1.79,,2013-01-28 10:42:00,
2013-01-28 00:52:00,61.0,53.0,-100.00,North,5,0.0,6.0,75,0.00,,,1.79,,2013-01-28 10:52:00,
2013-01-28 01:02:00,61.0,53.0,-100.00,North,5,0.0,6.0,75,0.00,,,1.79,,2013-01-28 11:02:00,
2013-01-28 01:11:00,60.0,54.0,-100.00,NNW,346,0.0,4.0,82,0.00,,,1.79,,2013-01-28 11:11:00,
2013-01-28 01:32:00,60.0,54.0,-100.00,NNW,346,0.0,4.0,82,0.00,,,1.79,,2013-01-28 11:32:00,
2013-01-28 01:42:00,60.0,54.0,-100.00,NNW,346,0.0,4.0,82,0.00,,,1.79,,2013-01-28 11:42:00,
2013-01-28 01:52:00,60.0,54.0,-100.00,NNW,346,0.0,4.0,82,0.00,,,1.79,,2013-01-28 11:52:00,
2013-01-28 02:03:00,60.0,54.0,-100.00,NNW,346,0.0,4.0,82,0.00,,,1.79,,2013-01-28 12:03:00,
2013-01-28 02:11:00,60.0,54.0,-100.00,NNW,347,0.0,3.0,80,0.00,,,1.79,,2013-01-28 12:11:00,
2013-01-28 02:33:00,60.0,54.0,-100.00,NNW,347,0.0,3.0,80,0.00,,,1.79,,2013-01-28 12:33:00,
2013-01-28 02:42:00,60.0,54.0,-100.00,NNW,347,0.0,3.0,80,0.00,,,1.79,,2013-01-28 12:42:00,
2013-01-28 02:52:00,60.0,54.0,-100.00,NNW,347,0.0,3.0,80,0.00,,,1.79,,2013-01-28 12:52:00,
2013-01-28 03:02:00,60.0,54.0,-100.00,NNW,347,0.0,3.0,80,0.00,,,1.79,,2013-01-28 13:02:00,
2013-01-28 03:11:00,60.0,53.0,-100.00,ENE,74,0.0,3.0,77,0.00,,,1.79,,2013-01-28 13:11:00,
2013-01-28 03:33:00,60.0,53.0,-100.00,ENE,74,0.0,3.0,77,0.00,,,1.79,,2013-01-28 13:33:00,
2013-01-28 03:42:00,60.0,53.0,-100.00,ENE,74,0.0,3.0,77,0.00,,,1.79,,2013-01-28 13:42:00,
2013-01-28 03:53:00,60.0,53.0,-100.00,ENE,74,0.0,3.0,77,0.00,,,1.79,,2013-01-28 13:53:00,
2013-01-28 04:02:00,60.0,53.0,-100.00,ENE,74,0.0,3.0,77,0.00,,,1.79,,2013-01-28 14:02:00,
2013-01-28 04:11:00,57.0,52.0,-100.00,NE,51,0.0,4.0,82,0.00,,,1.79,,2013-01-28 14:11:00,
2013-01-28 04:43:00,57.0,52.0,-100.00,NE,51,0.0,4.0,82,0.00,,,1.79,,2013-01-28 14:43:00,
2013-01-28 04:53:00,57.0,52.0,-100.00,NE,51,0.0,4.0,82,0.00,,,1.79,,2013-01-28 14:53:00,
2013-01-28 05:03:00,57.0,52.0,-100.00,NE,51,0.0,4.0,82,0.00,,,1.79,,2013-01-28 15:03:00,
2013-01-28 05:11:00,58.0,53.0,-100.00,ESE,117,0.0,6.0,82,0.00,,,1.79,,2013-01-28 15:11:00,
2013-01-28 05:33:00,58.0,53.0,-100.00,ESE,117,0.0,6.0,82,0.00,,,1.79,,2013-01-28 15:33:00,
2013-01-28 05:43:00,58.0,53.0,-100.00,ESE,117,0.0,6.0,82,0.00,,,1.79,,2013-01-28 15:43:00,
2013-01-28 05:53:00,58.0,53.0,-100.00,ESE,117,0.0,6.0,82,0.00,,,1.79,,2013-01-28 15:53:00,
2013-01-28 06:03:00,58.0,53.0,-100.00,ESE,117,0.0,6.0,82,0.00,,,1.79,,2013-01-28 16:03:00,
2013-01-28 06:11:00,58.0,52.0,-100.00,SE,130,2.0,8.0,79,0.00,,,1.79,,2013-01-28 16:11:00,
2013-01-28 06:33:00,58.0,52.0,-100.00,SE,130,2.0,8.0,79,0.00,,,1.79,,2013-01-28 16:33:00,
2013-01-28 06:43:00,58.0,52.0,-100.00,SE,130,2.0,8.0,79,0.00,,,1.79,,2013-01-28 16:43:00,
2013-01-28 06:53:00,58.0,52.0,-100.00,SE,130,2.0,8.0,79,0.00,,,1.79,,2013-01-28 16:53:00,
2013-01-28 07:01:00,58.0,52.0,-100.00,SE,130,2.0,8.0,79,0.00,,,1.79,,2013-01-28 17:01:00,
2013-01-28 07:11:00,60.0,54.0,-100.00,West,271,1.0,8.0,81,0.00,,,1.79,,2013-01-28 17:11:00,
2013-01-28 07:33:00,60.0,54.0,-100.00,West,271,1.0,8.0,81,0.00,,,1.79,,2013-01-28 17:33:00,
2013-01-28 07:42:00,60.0,54.0,-100.00,West,271,1.0,8.0,81,0.00,,,1.79,,2013-01-28 17:42:00,
2013-01-28 07:52:00,60.0,54.0,-100.00,West,271,1.0,8.0,81,0.00,,,1.79,,2013-01-28 17:52:00,
2013-01-28 08:02:00,60.0,54.0,-100.00,West,271,1.0,8.0,81,0.00,,,1.79,,2013-01-28 18:02:00,
2013-01-28 08:11:00,60.0,53.0,-100.00,ENE,67,0.0,9.0,77,0.00,,,-99.99,,2013-01-28 18:11:00,
2013-01-28 08:33:00,60.0,53.0,-100.00,ENE,67,0.0,9.0,77,0.00,,,-99.99,,2013-01-28 18:33:00,
2013-01-28 08:42:00,60.0,53.0,-100.00,ENE,67,0.0,9.0,77,0.00,,,-99.99,,2013-01-28 18:42:00,
2013-01-28 08:52:00,60.0,53.0,-100.00,ENE,67,0.0,9.0,77,0.00,,,-99.99,,2013-01-28 18:52:00,
2013-01-28 09:02:00,60.0,53.0,-100.00,ENE,67,0.0,9.0,77,0.00,,,-99.99,,2013-01-28 19:02:00,
2013-01-28 09:11:00,74.0,56.0,-100.00,West,261,0.0,3.0,54,0.00,,,1.25,,2013-01-28 19:11:00,
2013-01-28 09:42:00,74.0,56.0,-100.00,West,261,0.0,3.0,54,0.00,,,1.25,,2013-01-28 19:42:00,
2013-01-28 09:52:00,74.0,56.0,-100.00,West,261,0.0,3.0,54,0.00,,,1.25,,2013-01-28 19:52:00,
2013-01-28 10:02:00,74.0,56.0,-100.00,West,261,0.0,3.0,54,0.00,,,1.25,,2013-01-28 20:02:00,
2013-01-28 10:11:00,73.0,57.0,-100.00,West,259,0.0,4.0,58,0.00,,,1.25,,2013-01-28 20:11:00,
2013-01-28 10:33:00,73.0,57.0,-100.00,West,259,0.0,4.0,58,0.00,,,1.25,,2013-01-28 20:33:00,
2013-01-28 10:43:00,73.0,57.0,-100.00,West,259,0.0,4.0,58,0.00,,,1.25,,2013-01-28 20:43:00,
2013-01-28 10:52:00,73.0,57.0,-100.00,West,259,0.0,4.0,58,0.00,,,1.25,,2013-01-28 20:52:00,
2013-01-28 11:02:00,73.0,57.0,-100.00,West,259,0.0,4.0,58,0.00,,,1.25,,2013-01-28 21:02:00,
2013-01-28 11:11:00,74.0,58.0,-100.00,NW,317,0.0,4.0,58,0.00,,,1.24,,2013-01-28 21:11:00,
2013-01-28 11:33:00,74.0,58.0,-100.00,NW,317,0.0,4.0,58,0.00,,,1.24,,2013-01-28 21:33:00,
2013-01-28 11:43:00,74.0,58.0,-100.00,NW,317,0.0,4.0,58,0.00,,,1.24,,2013-01-28 21:43:00,
2013-01-28 11:53:00,74.0,58.0,-100.00,NW,317,0.0,4.0,58,0.00,,,1.24,,2013-01-28 21:53:00,
2013-01-28 12:01:00,74.0,58.0,-100.00,NW,317,0.0,4.0,58,0.00,,,1.24,,2013-01-28 22:01:00,
2013-01-28 12:11:00,75.0,62.0,-100.00,NNW,331,0.0,6.0,64,0.00,,,-99.99,,2013-01-28 22:11:00,
2013-01-28 12:33:00,75.0,62.0,-100.00,NNW,331,0.0,6.0,64,0.00,,,-99.99,,2013-01-28 22:33:00,
2013-01-28 12:42:00,75.0,62.0,-100.00,NNW,331,0.0,6.0,64,0.00,,,-99.99,,2013-01-28 22:42:00,
2013-01-28 12:52:00,75.0,62.0,-100.00,NNW,331,0.0,6.0,64,0.00,,,-99.99,,2013-01-28 22:52:00,
2013-01-28 13:01:00,75.0,62.0,-100.00,NNW,331,0.0,6.0,64,0.00,,,-99.99,,2013-01-28 23:01:00,
2013-01-28 13:11:00,69.0,61.0,-100.00,WNW,285,0.0,7.0,77,0.00,,,0.64,,2013-01-28 23:11:00,
2013-01-28 13:33:00,69.0,61.0,-100.00,WNW,285,0.0,7.0,77,0.00,,,0.64,,2013-01-28 23:33:00,
2013-01-28 13:42:00,69.0,61.0,-100.00,WNW,285,0.0,7.0,77,0.00,,,0.64,,2013-01-28 23:42:00,
2013-01-28 13:53:00,69.0,61.0,-100.00,WNW,285,0.0,7.0,77,0.00,,,0.64,,2013-01-28 23:53:00,
2013-01-28 14:02:00,69.0,61.0,-100.00,WNW,285,0.0,7.0,77,0.00,,,0.64,,2013-01-29 00:02:00,
2013-01-28 14:11:00,71.0,62.0,-100.00,NW,319,0.0,4.0,74,0.00,,,0.35,,2013-01-29 00:11:00,
2013-01-28 14:33:00,71.0,62.0,-100.00,NW,319,0.0,4.0,74,0.00,,,0.35,,2013-01-29 00:33:00,
2013-01-28 14:42:00,71.0,62.0,-100.00,NW,319,0.0,4.0,74,0.00,,,0.35,,2013-01-29 00:42:00,
2013-01-28 14:52:00,71.0,62.0,-100.00,NW,319,0.0,4.0,74,0.00,,,0.35,,2013-01-29 00:52:00,
2013-01-28 15:02:00,71.0,62.0,-100.00,NW,319,0.0,4.0,74,0.00,,,0.35,,2013-01-29 01:02:00,
2013-01-28 15:11:00,75.0,60.0,-100.00,SSW,213,3.0,6.0,60,0.00,,,0.22,,2013-01-29 01:11:00,
2013-01-28 15:32:00,75.0,60.0,-100.00,SSW,213,3.0,6.0,60,0.00,,,0.22,,2013-01-29 01:32:00,
2013-01-28 15:42:00,75.0,60.0,-100.00,SSW,213,3.0,6.0,60,0.00,,,0.22,,2013-01-29 01:42:00,
2013-01-28 15:52:00,75.0,60.0,-100.00,SSW,213,3.0,6.0,60,0.00,,,0.22,,2013-01-29 01:52:00,
2013-01-28 16:01:00,75.0,60.0,-100.00,SSW,213,3.0,6.0,60,0.00,,,0.22,,2013-01-29 02:01:00,
2013-01-28 16:11:00,71.0,59.0,-100.00,SW,222,1.0,7.0,65,0.00,,,0.20,,2013-01-29 02:11:00,
2013-01-28 16:42:00,71.0,59.0,-100.00,SW,222,1.0,7.0,65,0.00,,,0.20,,2013-01-29 02:42:00,
2013-01-28 16:53:00,71.0,59.0,-100.00,SW,222,1.0,7.0,65,0.00,,,0.20,,2013-01-29 02:53:00,
2013-01-28 17:02:00,71.0,59.0,-100.00,SW,222,1.0,7.0,65,0.00,,,0.20,,2013-01-29 03:02:00,
2013-01-28 17:11:00,71.0,61.0,-100.00,South,188,1.0,6.0,71,0.00,,,0.18,,2013-01-29 03:11:00,
2013-01-28 17:32:00,71.0,61.0,-100.00,South,188,1.0,6.0,71,0.00,,,0.18,,2013-01-29 03:32:00,
2013-01-28 17:42:00,71.0,61.0,-100.00,South,188,1.0,6.0,71,0.00,,,0.18,,2013-01-29 03:42:00,
2013-01-28 17:53:00,71.0,61.0,-100.00,South,188,1.0,6.0,71,0.00,,,0.18,,2013-01-29 03:53:00,
2013-01-28 18:01:00,71.0,61.0,-100.00,South,188,1.0,6.0,71,0.00,,,0.18,,2013-01-29 04:01:00,
2013-01-28 18:11:00,66.0,59.0,-100.00,SSW,193,0.0,5.0,78,0.00,,,0.16,,2013-01-29 04:11:00,
2013-01-28 18:32:00,66.0,59.0,-100.00,SSW,193,0.0,5.0,78,0.00,,,0.16,,2013-01-29 04:32:00,
2013-01-28 18:42:00,66.0,59.0,-100.00,SSW,193,0.0,5.0,78,0.00,,,0.16,,2013-01-29 04:42:00,
2013-01-28 18:52:00,66.0,59.0,-100.00,SSW,193,0.0,5.0,78,0.00,,,0.16,,2013-01-29 04:52:00,
2013-01-28 19:03:00,66.0,59.0,-100.00,SSW,193,0.0,5.0,78,0.00,,,0.16,,2013-01-29 05:03:00,
2013-01-28 19:11:00,62.0,59.0,-100.00,South,176,0.0,4.0,90,0.00,,,0.06,,2013-01-29 05:11:00,
2013-01-28 19:32:00,62.0,59.0,-100.00,South,176,0.0,4.0,90,0.00,,,0.06,,2013-01-29 05:32:00,
2013-01-28 19:42:00,62.0,59.0,-100.00,South,176,0.0,4.0,90,0.00,,,0.06,,2013-01-29 05:42:00,
2013-01-28 19:52:00,62.0,59.0,-100.00,South,176,0.0,4.0,90,0.00,,,0.06,,2013-01-29 05:52:00,
2013-01-28 20:01:00,62.0,59.0,-100.00,South,176,0.0,4.0,90,0.00,,,0.06,,2013-01-29 06:01:00,
2013-01-28 20:11:00,61.0,59.0,-100.00,East,101,0.0,3.0,93,0.00,,,0.00,,2013-01-29 06:11:00,
2013-01-28 20:32:00,61.0,59.0,-100.00,East,101,0.0,3.0,93,0.00,,,0.00,,2013-01-29 06:32:00,
2013-01-28 20:42:00,61.0,59.0,-100.00,East,101,0.0,3.0,93,0.00,,,0.00,,2013-01-29 06:42:00,
2013-01-28 20:52:00,61.0,59.0,-100.00,East,101,0.0,3.0,93,0.00,,,0.00,,2013-01-29 06:52:00,
2013-01-28 21:01:00,61.0,59.0,-100.00,East,101,0.0,3.0,93,0.00,,,0.00,,2013-01-29 07:01:00,
2013-01-28 21:11:00,61.0,60.0,-100.00,South,175,0.0,4.0,97,0.00,,,0.00,,2013-01-29 07:11:00,
2013-01-28 21:32:00,61.0,60.0,-100.00,South,175,0.0,4.0,97,0.00,,,0.00,,2013-01-29 07:32:00,
2013-01-28 21:42:00,61.0,60.0,-100.00,South,175,0.0,4.0,97,0.00,,,0.00,,2013-01-29 07:42:00,
2013-01-28 21:52:00,61.0,60.0,-100.00,South,175,0.0,4.0,97,0.00,,,0.00,,2013-01-29 07:52:00,
2013-01-28 22:01:00,61.0,60.0,-100.00,South,175,0.0,4.0,97,0.00,,,0.00,,2013-01-29 08:01:00,
2013-01-28 22:11:00,61.0,58.0,-100.00,South,179,0.0,0.0,89,0.00,,,0.00,,2013-01-29 08:11:00,
2013-01-28 22:32:00,61.0,58.0,-100.00,South,179,0.0,0.0,89,0.00,,,0.00,,2013-01-29 08:32:00,
2013-01-28 22:42:00,61.0,58.0,-100.00,South,179,0.0,0.0,89,0.00,,,0.00,,2013-01-29 08:42:00,
2013-01-28 22:52:00,61.0,58.0,-100.00,South,179,0.0,0.0,89,0.00,,,0.00,,2013-01-29 08:52:00,
2013-01-28 23:01:00,61.0,58.0,-100.00,South,179,0.0,0.0,89,0.00,,,0.00,,2013-01-29 09:01:00,
2013-01-28 23:11:00,61.0,60.0,-100.00,East,97,0.0,4.0,95,0.00,,,0.00,,2013-01-29 09:11:00,
2013-01-28 23:32:00,61.0,60.0,-100.00,East,97,0.0,4.0,95,0.00,,,0.00,,2013-01-29 09:32:00,
2013-01-28 23:42:00,61.0,60.0,-100.00,East,97,0.0,4.0,95,0.00,,,0.00,,2013-01-29 09:42:00,
2013-01-28 23:52:00,61.0,60.0,-100.00,East,97,0.0,4.0,95,0.00,,,0.00,,2013-01-29 09:52:00,